When you browse on this site, cookies collect data to enhance your experience and personalize the content and advertising you see.
Visit our Privacy Policy to learn more. By continuing to use the site, you agree to this use of cookies and data.
  • In Portugal
  • List of Countries
  • For 7 days
  • Water Temperature
  • Satellite Maps
  • Weather Map
  • Weather Widgets
  • user-avatar
    Login

    Hourly Weather Zhlobin

    Today, 25 May, Saturday

    Time Temperature Precipitation Wind Pressure Humidity
    00:00 +18°C° 0.5 mm 1 mps 743 mmHg 88%
    01:00 +16°C° 0.5 mm 1 mps 743 mmHg 89%
    02:00 +16°C° 0.5 mm 1 mps 743 mmHg 89%
    03:00 +16°C° 0.2 mm 1 mps 743 mmHg 89%
    04:00 +18°C° 0.2 mm 1 mps 743 mmHg 89%
    05:00 +18°C° 0.2 mm 1 mps 743 mmHg 89%
    06:00 +19°C° 0 mm 1 mps 743 mmHg 85%
    07:00 +20°C° 0 mm 1 mps 743 mmHg 82%
    08:00 +21°C° 0 mm 2 mps 743 mmHg 78%
    09:00 +23°C° 0.5 mm 2 mps 743 mmHg 73%
    10:00 +24°C° 0.5 mm 2 mps 743 mmHg 69%
    11:00 +25°C° 0.5 mm 3 mps 743 mmHg 65%
    12:00 +25°C° 1.4 mm 3 mps 742 mmHg 65%
    13:00 +24°C° 1.4 mm 2 mps 742 mmHg 66%
    14:00 +24°C° 1.4 mm 2 mps 742 mmHg 67%
    15:00 +24°C° 0.2 mm 2 mps 742 mmHg 66%
    16:00 +24°C° 0.2 mm 3 mps 742 mmHg 66%
    17:00 +24°C° 0.2 mm 3 mps 742 mmHg 66%
    18:00 +21°C° 0.3 mm 3 mps 742 mmHg 73%
    19:00 +19°C° 0.3 mm 3 mps 742 mmHg 80%
    20:00 +18°C° 0.3 mm 3 mps 742 mmHg 87%
    21:00 +17°C° 0 mm 3 mps 742 mmHg 88%
    22:00 +16°C° 0 mm 3 mps 743 mmHg 90%
    23:00 +14°C° 0 mm 3 mps 743 mmHg 91%

    Tomorrow, 26 May, Sunday

    Time Temperature Precipitation Wind Pressure Humidity
    00:00 +14°C° 0 mm 2 mps 743 mmHg 91%
    01:00 +14°C° 0 mm 2 mps 743 mmHg 91%
    02:00 +13°C° 0 mm 2 mps 743 mmHg 91%
    03:00 +13°C° 0 mm 2 mps 744 mmHg 92%
    04:00 +12°C° 0 mm 3 mps 744 mmHg 92%
    05:00 +12°C° 0 mm 3 mps 744 mmHg 93%
    06:00 +13°C° 0 mm 3 mps 744 mmHg 86%
    07:00 +16°C° 0 mm 3 mps 745 mmHg 79%
    08:00 +17°C° 0 mm 3 mps 745 mmHg 72%
    09:00 +18°C° 0 mm 4 mps 745 mmHg 64%
    10:00 +19°C° 0 mm 4 mps 745 mmHg 57%
    11:00 +20°C° 0 mm 5 mps 745 mmHg 49%
    12:00 +21°C° 0 mm 5 mps 745 mmHg 48%
    13:00 +21°C° 0 mm 5 mps 745 mmHg 47%
    14:00 +21°C° 0 mm 5 mps 745 mmHg 46%
    15:00 +21°C° 0 mm 5 mps 745 mmHg 49%
    16:00 +21°C° 0 mm 5 mps 744 mmHg 52%
    17:00 +21°C° 0 mm 4 mps 744 mmHg 55%
    18:00 +19°C° 0 mm 4 mps 744 mmHg 61%
    19:00 +18°C° 0 mm 3 mps 745 mmHg 67%
    20:00 +16°C° 0 mm 3 mps 745 mmHg 73%
    21:00 +14°C° 0 mm 3 mps 745 mmHg 75%
    22:00 +15°C° 0 mm 2 mps 745 mmHg 78%
    23:00 +14°C° 0 mm 2 mps 746 mmHg 81%

    Day after tomorrow, 27 May, Monday

    Time Temperature Precipitation Wind Pressure Humidity
    00:00 +13°C° 0 mm 2 mps 746 mmHg 83%
    01:00 +13°C° 0 mm 2 mps 746 mmHg 86%
    02:00 +12°C° 0 mm 2 mps 746 mmHg 88%
    03:00 +13°C° 0 mm 2 mps 746 mmHg 89%
    04:00 +13°C° 0 mm 2 mps 747 mmHg 89%
    05:00 +13°C° 0 mm 2 mps 747 mmHg 90%
    06:00 +15°C° 0 mm 2 mps 747 mmHg 81%
    07:00 +17°C° 0 mm 3 mps 747 mmHg 73%
    08:00 +19°C° 0 mm 3 mps 747 mmHg 64%
    09:00 +20°C° 0 mm 4 mps 747 mmHg 60%
    10:00 +21°C° 0 mm 4 mps 748 mmHg 56%
    11:00 +23°C° 0 mm 4 mps 748 mmHg 53%
    12:00 +23°C° 0 mm 4 mps 747 mmHg 51%
    13:00 +25°C° 0 mm 4 mps 747 mmHg 50%
    14:00 +26°C° 0 mm 4 mps 747 mmHg 48%
    15:00 +26°C° 0 mm 4 mps 747 mmHg 49%
    16:00 +26°C° 0 mm 3 mps 747 mmHg 50%
    17:00 +26°C° 0 mm 3 mps 747 mmHg 51%
    18:00 +25°C° 0 mm 3 mps 747 mmHg 59%
    19:00 +22°C° 0 mm 4 mps 747 mmHg 68%
    20:00 +20°C° 0 mm 4 mps 747 mmHg 76%
    21:00 +19°C° 0.5 mm 3 mps 747 mmHg 82%
    22:00 +19°C° 0.5 mm 3 mps 747 mmHg 88%
    23:00 +18°C° 0.5 mm 2 mps 747 mmHg 94%

    28 May, Tuesday

    Time Temperature Precipitation Wind Pressure Humidity
    00:00 +18°C° 0.1 mm 2 mps 747 mmHg 94%
    01:00 +17°C° 0.1 mm 2 mps 747 mmHg 94%
    02:00 +17°C° 0.1 mm 2 mps 747 mmHg 93%
    03:00 +17°C° 0 mm 2 mps 747 mmHg 93%
    04:00 +17°C° 0 mm 2 mps 747 mmHg 93%
    05:00 +17°C° 0 mm 2 mps 747 mmHg 93%
    06:00 +19°C° 0 mm 3 mps 747 mmHg 89%
    07:00 +20°C° 0 mm 3 mps 747 mmHg 85%
    08:00 +22°C° 0 mm 3 mps 748 mmHg 81%
    09:00 +23°C° 0.2 mm 4 mps 747 mmHg 73%
    10:00 +26°C° 0.2 mm 5 mps 747 mmHg 64%
    11:00 +28°C° 0.2 mm 7 mps 747 mmHg 55%
    12:00 +28°C° 0 mm 7 mps 747 mmHg 52%
    13:00 +28°C° 0 mm 7 mps 746 mmHg 48%
    14:00 +29°C° 0 mm 7 mps 746 mmHg 44%
    15:00 +28°C° 0 mm 7 mps 746 mmHg 48%
    16:00 +28°C° 0 mm 6 mps 746 mmHg 51%
    17:00 +27°C° 0 mm 6 mps 746 mmHg 54%
    18:00 +26°C° 0 mm 5 mps 746 mmHg 60%
    19:00 +23°C° 0 mm 5 mps 746 mmHg 65%
    20:00 +22°C° 0 mm 4 mps 746 mmHg 71%
    21:00 +21°C° 0 mm 4 mps 746 mmHg 72%
    22:00 +21°C° 0 mm 4 mps 746 mmHg 73%
    23:00 +20°C° 0 mm 4 mps 746 mmHg 74%

    29 May, Wednesday

    Time Temperature Precipitation Wind Pressure Humidity
    00:00 +19°C° 0 mm 4 mps 746 mmHg 78%
    01:00 +19°C° 0 mm 4 mps 746 mmHg 82%
    02:00 +18°C° 0 mm 4 mps 746 mmHg 86%
    03:00 +18°C° 0 mm 4 mps 746 mmHg 81%
    04:00 +17°C° 0 mm 4 mps 746 mmHg 77%
    05:00 +17°C° 0 mm 4 mps 746 mmHg 72%
    06:00 +17°C° 0 mm 5 mps 746 mmHg 69%
    07:00 +20°C° 0 mm 6 mps 746 mmHg 66%
    08:00 +21°C° 0 mm 6 mps 746 mmHg 63%
    09:00 +23°C° 0 mm 6 mps 746 mmHg 61%
    10:00 +24°C° 0 mm 7 mps 746 mmHg 59%
    11:00 +27°C° 0 mm 7 mps 746 mmHg 57%
    12:00 +27°C° 0 mm 7 mps 746 mmHg 55%
    13:00 +28°C° 0 mm 7 mps 746 mmHg 53%
    14:00 +29°C° 0 mm 7 mps 746 mmHg 52%
    15:00 +29°C° 0.1 mm 6 mps 745 mmHg 53%
    16:00 +29°C° 0.1 mm 6 mps 745 mmHg 55%
    17:00 +28°C° 0.1 mm 5 mps 745 mmHg 57%
    18:00 +27°C° 0.3 mm 5 mps 746 mmHg 63%
    19:00 +25°C° 0.3 mm 4 mps 746 mmHg 70%
    20:00 +22°C° 0.3 mm 4 mps 746 mmHg 76%
    21:00 +21°C° 0 mm 3 mps 746 mmHg 80%
    22:00 +20°C° 0 mm 3 mps 746 mmHg 85%
    23:00 +19°C° 0 mm 2 mps 746 mmHg 89%

    30 May, Thursday

    Time Temperature Precipitation Wind Pressure Humidity
    00:00 +18°C° 0 mm 2 mps 746 mmHg 90%
    01:00 +18°C° 0 mm 2 mps 746 mmHg 92%
    02:00 +18°C° 0 mm 2 mps 746 mmHg 93%
    03:00 +18°C° 0 mm 2 mps 746 mmHg 94%
    04:00 +18°C° 0 mm 2 mps 747 mmHg 94%
    05:00 +19°C° 0 mm 1 mps 747 mmHg 94%
    06:00 +19°C° 0 mm 2 mps 747 mmHg 89%
    07:00 +20°C° 0 mm 2 mps 748 mmHg 85%
    08:00 +22°C° 0 mm 3 mps 748 mmHg 80%
    09:00 +22°C° 0.2 mm 3 mps 749 mmHg 78%
    10:00 +23°C° 0.2 mm 4 mps 749 mmHg 75%
    11:00 +23°C° 0.2 mm 4 mps 749 mmHg 73%
    12:00 +23°C° 0.1 mm 4 mps 749 mmHg 73%
    13:00 +23°C° 0.1 mm 4 mps 749 mmHg 72%
    14:00 +23°C° 0.1 mm 4 mps 750 mmHg 71%
    15:00 +22°C° 0 mm 4 mps 750 mmHg 71%
    16:00 +22°C° 0 mm 4 mps 749 mmHg 71%
    17:00 +22°C° 0 mm 3 mps 749 mmHg 71%
    18:00 +21°C° 0 mm 3 mps 750 mmHg 77%
    19:00 +19°C° 0 mm 2 mps 750 mmHg 82%
    20:00 +19°C° 0 mm 1 mps 750 mmHg 87%
    21:00 +18°C° 0 mm 1 mps 750 mmHg 90%
    22:00 +18°C° 0 mm 1 mps 750 mmHg 92%
    23:00 +16°C° 0 mm 1 mps 750 mmHg 95%
    Show more